Location: Fisheating Creek Campgrounds
(26.9333°N, 81.3167°W)
Time: 13:33:10
(UTC-04:00)

Daily predictions for brighter satellites

Satellite Brightness Start Highest point End
(mag) Time Altitude Azimuth Time Altitude Azimuth Time Altitude Azimuth
GPS 2-12 Rocket1 3.9 20:41:07 10° WSW 20:45:06 32° S 20:49:06 10° ESE
Cosmos 2026 Rocket 4.2 20:41:57 10° S 20:48:01 78° W 20:54:12 10° N
Cosmos 1328 Rocket 4.3 20:46:26 10° NNE 20:50:27 33° E 20:54:26 10° SE
Cosmos 1674 3.9 20:48:53 10° SE 20:51:59 24° E 20:55:06 10° NE
OTV 4 0.3 20:49:08 10° WSW 20:52:06 83° SSE 20:55:04 10° ENE
Cosmos 2221 3.7 20:52:43 10° NNW 20:56:48 45° W 21:00:55 10° SSW
BREEZE-M DEB (TANK) 4.1 20:54:25 10° S 20:58:36 17° SSE 21:00:55 10° ESE
NATO 3D Rocket 4.4 20:54:16 10° WSW 20:59:57 55° S 21:08:03 10° ESE
Cosmos 1743 Rocket 3.8 20:58:00 10° S 21:02:28 79° W 21:06:56 10° N
Sakura Rocket 3.6 20:58:30 10° SW 21:03:16 39° SSE 21:07:01 10° E
ALOS 2.3 20:58:58 10° SSE 21:03:34 64° ENE 21:08:11 10° N
ERS-1 Rocket 4.1 20:59:39 10° SE 21:03:48 27° ENE 21:07:58 10° NNE
OAO 2 Rocket 3.9 21:00:06 10° WSW 21:05:21 65° NNW 21:10:39 10° ENE
Cosmos 1500 Rocket 3.5 21:03:02 10° S 21:07:22 76° E 21:11:46 10° N
ERBS 3.6 21:05:31 10° S 21:08:16 21° ESE 21:11:00 10° ENE
Cosmos 371 Rocket 3.3 21:06:43 10° NNW 21:11:32 82° WSW 21:16:19 10° SSE
Tiangong 1 4.1 21:09:53 10° WNW 21:12:04 17° NNW 21:14:14 10° NNE
NOSS 3-1 (C) 3.3 21:07:05 10° SSW 21:12:42 65° ESE 21:18:44 10° NE
Delta 128 4.3 21:09:30 10° W 21:14:19 43° SSW 21:17:46 15° SE
Cosmos 2151 3.5 21:14:48 10° SSE 21:18:41 38° E 21:22:35 10° NNE
Cosmos 2058 4.1 21:21:35 18° SE 21:23:21 24° E 21:26:40 10° NE
H-2A R/B 2.8 21:19:51 10° S 21:23:41 77° W 21:27:29 10° NNW
Hubble Space Telescope 0.9 21:21:10 10° WSW 21:25:11 52° SSE 21:28:18 16° E
S3M 4.0 21:20:40 10° N 21:26:48 89° W 21:32:58 10° S
Cosmos 2228 Rocket 3.7 21:22:54 10° NNW 21:27:19 58° W 21:31:47 10° S
CZ-2D R/B 4.4 21:28:39 10° S 21:32:20 43° W 21:36:02 10° NNW
Resurs 01 Rocket 4.4 21:32:32 10° SW 21:34:43 13° W 21:36:53 10° WNW
COSMOS 2428 4.2 21:31:31 10° NNE 21:35:43 21° ENE 21:37:59 17° E
Cosmos 2298 Rocket 4.2 21:31:19 10° S 21:36:25 50° ESE 21:41:32 10° NNE
Nimbus 7 Rocket 4.4 21:32:16 10° NNE 21:38:03 62° ESE 21:43:52 10° S
Cosmos 1437 Rocket 2.6 21:36:30 10° N 21:40:21 89° W 21:42:59 20° S
Sich 1 4.2 21:40:21 23° E 21:40:50 24° E 21:44:22 10° NE
deb Chang Zheng 4 3.5 21:36:46 10° NNE 21:41:07 90° W 21:45:28 10° SSW
SJ-11-01 4.3 21:38:18 20° SSE 21:41:30 68° ENE 21:46:12 10° N
Cosmos 1515 Rocket 3.9 21:39:37 10° NNW 21:44:00 64° W 21:47:57 12° S
Cosmos 304 Rocket 4.0 21:40:01 10° N 21:44:43 52° ENE 21:46:51 29° SE
Cosmos 1726 4.3 21:42:58 10° NE 21:44:08 13° ENE 21:44:08 13° ENE
Cosmos 1939 Rocket 3.1 21:43:38 31° SE 21:45:03 47° ENE 21:48:48 10° N
Cosmos 1633 Rocket 4.1 21:47:00 26° E 21:47:13 26° E 21:50:52 10° NNE
Palapa 6 Rocket 4.4 21:42:53 10° W 21:49:49 60° S 21:54:27 26° ESE
CZ-4 DEB 4.2 21:48:06 14° SSW 21:50:26 35° W 21:53:25 10° NNW
Cosmos 1151 Rocket 2.9 21:48:02 10° N 21:52:22 84° E 21:54:38 28° S
SPOT 5 3.5 21:51:23 30° ESE 21:52:35 35° ENE 21:56:54 10° N
CZ-4B R/B 4.1 21:49:32 10° NNE 21:54:19 36° E 21:55:23 33° SE
Cosmos 883 Rocket 4.4 21:49:08 10° N 21:55:18 75° E 21:59:16 23° SSE
DELTA 2 R/B (1) 4.2 21:50:56 10° NW 21:56:18 49° NNE 21:59:14 25° E
OE (NEXTSAT) 4.4 21:54:04 10° NW 21:57:38 73° SW 21:58:14 56° SSE
Cosmos 2219 4.1 21:52:44 10° SW 21:58:17 50° WNW 22:03:51 10° N
Cosmos 1805 Rocket 3.5 22:01:46 28° S 22:04:04 84° E 22:08:32 10° N
Cosmos 1328 4.5 22:02:17 14° SSW 22:05:27 53° W 22:09:19 10° N
H-2A R/B 4.3 22:05:52 10° ENE 22:06:05 10° ENE 22:06:56 10° ENE
Cosmos 1680 Rocket 3.4 22:01:54 10° NNW 22:07:11 87° ENE 22:09:18 37° SSE
Cosmos 2082 4.1 22:07:50 38° ESE 22:08:29 40° ESE 22:13:47 10° NE
Cosmos 405 3.9 22:05:11 10° NNW 22:08:39 46° W 22:09:57 30° SSW
Cosmos 2237 Rocket 4.2 22:07:53 10° NE 22:10:04 12° ENE 22:10:50 12° ENE
Cosmos 1898 Rocket 3.5 22:06:05 10° SSW 22:11:14 83° WNW 22:16:27 10° NNE
Cosmos 2322 Rocket 4.3 22:08:10 10° NW 22:12:16 21° W 22:16:23 10° SSW
Cosmos 923 Rocket 4.4 22:07:28 10° NNW 22:12:34 59° WSW 22:15:09 28° S
Cosmos 220 Rocket 3.9 22:13:45 59° SSE 22:14:23 70° ESE 22:18:46 10° NNE
Cosmos 858 Rocket 4.4 22:10:01 14° SSW 22:14:32 86° WNW 22:19:45 10° NNE
Cosmos 2322 3.8 22:09:55 10° NNW 22:15:36 73° WSW 22:18:02 35° S
NOSS 3-1 (A) 4.3 22:12:20 10° SW 22:17:51 47° WNW 22:23:49 10° NNE
SPOT 1/Viking Rocket 4.2 22:17:51 36° E 22:18:14 36° ENE 22:22:54 10° N
Cosmos 2360 Rocket 2.5 22:14:33 10° NNW 22:20:08 63° WSW 22:22:32 34° S
H-2A R/B 2.7 22:19:17 34° SSW 22:20:58 55° W 22:25:25 10° NNW
Cosmos 1703 4.4 22:23:37 32° NE 22:23:37 32° NE 22:26:02 10° NNE
SL-14 R/B 3.3 22:23:01 69° SW 22:23:21 76° W 22:27:21 10° N
YAOGAN 6 3.7 22:27:34 36° NNE 22:27:34 36° NNE 22:30:00 10° N
Cosmos 1666 Rocket 3.7 22:25:56 49° SSW 22:26:59 71° W 22:31:23 10° N
Cosmos 1241 Rocket 4.3 22:21:13 10° SSW 22:27:23 87° ESE 22:33:37 10° NNE
OTV 4 3.2 22:26:36 10° WNW 22:28:40 17° NNW 22:29:40 15° N
Terra 4.0 22:31:05 13° NE 22:31:05 13° NE 22:32:31 10° NE
Meteor 2-11 Rocket 4.4 22:24:01 10° N 22:30:08 70° E 22:31:29 53° SE
Cosmos 1707 Rocket 3.4 22:26:29 10° N 22:30:45 81° ENE 22:30:45 81° ENE
Cosmos 2315 Rocket 4.0 22:24:51 10° N 22:31:02 77° W 22:33:35 38° S
Meteor 1-27 4.1 22:29:26 10° N 22:35:06 83° E 22:36:03 63° SSE
ATLAS 2AS CENTAUR R/B 2.8 22:32:23 10° SSW 22:39:32 82° ESE 22:47:25 10° NNE
Cosmos 2227 Rocket 2.1 22:39:38 52° SSW 22:41:05 89° ESE 22:46:46 10° NNE
Envisat 4.1 22:45:27 31° SW 22:47:00 38° W 22:51:43 10° NNW
Nadezhda 1 Rocket 4.5 22:42:00 10° NNE 22:47:23 42° ENE 22:47:23 42° ENE
SL-08 R/B 4.4 22:46:40 51° SSW 22:48:21 84° W 22:54:39 10° N
Cosmos 1300 3.9 22:46:49 10° NNW 22:49:47 40° WNW 22:49:47 40° WNW
MetOp-A 4.3 22:51:21 57° SW 22:52:02 62° WSW 22:57:20 10° NNW
Cosmos 1745 Rocket 3.9 22:52:10 64° S 22:53:13 90° WNW 22:59:25 10° N
NOSS 0 Rocket 4.4 22:47:38 10° N 22:53:27 44° ENE 22:53:27 44° ENE
ATLAS 3B R/B 4.4 22:53:45 10° N 22:58:03 17° NE 22:59:20 16° ENE
ARGOS 3.1 23:03:30 79° NNW 23:03:30 79° NNW 23:08:34 10° NNW
SL-16 R/B 4.2 23:01:47 10° NNE 23:04:25 16° NE 23:04:25 16° NE
USA 32 4.2 23:00:07 10° N 23:04:53 71° NW 23:04:53 71° NW
Hubble Space Telescope 2.9 23:02:15 10° W 23:03:43 21° W 23:03:43 21° W
Cosmos 2297 Rocket 2.2 23:07:58 76° NW 23:07:58 76° NW 23:13:24 10° NNE
Cosmos 2333 Rocket 2.8 23:02:44 10° N 23:07:32 47° NE 23:07:32 47° NE
Cosmos 1386 Rocket 4.3 23:13:36 81° NNW 23:13:36 81° NNW 23:19:22 10° N
COSMOS 2455 4.4 23:13:48 10° N 23:17:55 23° NE 23:17:55 23° NE
Cosmos 2219 Rocket 2.5 23:14:15 10° NNW 23:18:54 63° NNW 23:18:54 63° NNW
COSMOS 2428 3.7 23:14:47 10° NW 23:19:59 38° WSW 23:19:59 38° WSW
Cosmos 1980 4.5 23:36:53 10° NNW 23:40:54 48° NNW 23:40:54 48° NNW
H-2A R/B 3.2 23:46:30 43° NNW 23:46:30 43° NNW 23:50:10 10° NNW
FALCON 9 R/B 3.7 23:29:53 10° W 23:51:26 58° N 23:54:02 40° NE
